TimePST,TemperatureF,Dew PointF,Humidity,Sea Level PressureIn,VisibilityMPH,Wind Direction,Wind SpeedMPH,Gust SpeedMPH,PrecipitationIn,Events,Conditions,WindDirDegrees,DateUTC
12:53 AM,21.9,15.1,75,30.15,10.0,SSE,4.6,-,N/A,,Scattered Clouds,150,2013-12-20 08:53:00
1:53 AM,26.1,18.0,71,30.12,10.0,SE,4.6,-,N/A,,Clear,130,2013-12-20 09:53:00
2:53 AM,28.0,17.1,63,30.10,10.0,Calm,Calm,-,N/A,,Clear,0,2013-12-20 10:53:00
3:53 AM,25.0,18.0,75,30.08,10.0,SSE,3.5,-,N/A,,Clear,160,2013-12-20 11:53:00
4:53 AM,27.0,14.0,58,30.05,10.0,South,5.8,-,N/A,,Mostly Cloudy,170,2013-12-20 12:53:00
5:53 AM,26.1,15.1,63,30.04,10.0,South,5.8,-,N/A,,Overcast,170,2013-12-20 13:53:00
6:53 AM,28.0,16.0,61,30.04,10.0,South,6.9,-,N/A,,Overcast,180,2013-12-20 14:53:00
7:53 AM,34.0,21.9,61,30.03,9.0,WSW,13.8,18.4,0.00,Snow,Light Snow,240,2013-12-20 15:53:00
8:05 AM,34.0,26.1,73,30.01,2.5,WSW,18.4,23.0,0.00,Snow,Light Snow,240,2013-12-20 16:05:00
8:15 AM,32.0,27.0,82,30.03,1.5,WSW,13.8,-,0.00,Snow,Light Snow,250,2013-12-20 16:15:00
8:27 AM,32.0,28.9,88,30.03,0.5,WSW,10.4,-,0.00,Fog-Snow,Snow,250,2013-12-20 16:27:00
8:35 AM,32.0,28.9,88,30.03,0.5,WSW,9.2,-,0.01,Fog-Snow,Snow,240,2013-12-20 16:35:00
8:53 AM,32.0,30.0,92,30.05,0.2,SW,8.1,-,0.05,Fog-Snow,Snow,230,2013-12-20 16:53:00
9:53 AM,33.1,30.0,89,30.02,0.5,SW,10.4,-,0.05,Fog-Snow,Snow,230,2013-12-20 17:53:00
10:18 AM,32.0,30.9,96,29.97,1.0,South,10.4,-,0.04,Snow,Light Snow,180,2013-12-20 18:18:00
10:26 AM,33.1,30.9,92,29.97,3.0,South,10.4,-,0.04,Snow,Light Snow,170,2013-12-20 18:26:00
10:37 AM,33.1,30.9,92,29.96,10.0,SSE,6.9,-,0.04,,Overcast,160,2013-12-20 18:37:00
10:53 AM,34.0,30.9,89,29.96,10.0,SSE,9.2,-,0.04,,Overcast,160,2013-12-20 18:53:00
11:53 AM,34.0,30.9,89,29.89,8.0,SE,5.8,-,0.00,Snow,Light Snow,140,2013-12-20 19:53:00
12:53 PM,36.0,32.0,86,29.84,10.0,Calm,Calm,-,0.00,,Overcast,0,2013-12-20 20:53:00
1:53 PM,37.0,30.9,79,29.76,10.0,Calm,Calm,-,N/A,,Overcast,0,2013-12-20 21:53:00
2:53 PM,37.0,30.9,79,29.73,10.0,WSW,3.5,-,0.00,Rain,Light Rain,250,2013-12-20 22:53:00
3:53 PM,37.0,30.9,79,29.71,10.0,South,11.5,-,0.01,,Overcast,190,2013-12-20 23:53:00
4:53 PM,37.0,32.0,82,29.68,10.0,SSW,15.0,-,N/A,,Scattered Clouds,200,2013-12-21 00:53:00
5:53 PM,39.9,34.0,79,29.66,10.0,SW,19.6,26.5,N/A,,Clear,230,2013-12-21 01:53:00
6:53 PM,41.0,34.0,76,29.66,10.0,SW,20.7,-,N/A,,Clear,230,2013-12-21 02:53:00
7:53 PM,43.0,35.1,74,29.67,10.0,WSW,21.9,26.5,N/A,,Clear,240,2013-12-21 03:53:00
8:53 PM,43.0,36.0,76,29.70,10.0,WSW,16.1,-,N/A,,Clear,240,2013-12-21 04:53:00
9:53 PM,44.1,36.0,73,29.71,10.0,WSW,17.3,-,N/A,,Mostly Cloudy,240,2013-12-21 05:53:00
10:53 PM,42.1,35.1,76,29.75,10.0,North,5.8,-,N/A,,Partly Cloudy,360,2013-12-21 06:53:00
11:53 PM,34.0,30.9,89,29.78,10.0,NE,3.5,-,N/A,,Mostly Cloudy,40,2013-12-21 07:53:00